Wind_Speed
29 29 31 32 34 36 32 28 27 27 26 27 25 25 22 18 20 22 18 17 17 16 15 14 12 9 4 1 1 2 3 4 5 4 5 5 5 5 6 7 6 5 6 8 10 11 12 14 15
32 32 33 35 38 37 31 28 27 31 33 28 28 26 24 21 21 21 19 18 14 12 12 12 10 8 6 5 4 5 4 5 4 4 4 5 5 6 6 6 7 8 9 11 13 14 16 17 18
35 36 37 40 39 37 25 28 36 36 29 28 30 29 28 26 23 22 24 19 13 8 14 13 12 9 8 6 6 5 5 4 3 2 3 4 5 6 8 9 11 12 13 15 16 18 19 21 23
40 42 43 44 40 29 29 34 38 40 38 38 38 35 33 29 26 25 24 24 25 16 17 18 15 11 10 6 4 4 4 3 2 3 4 6 8 9 11 13 14 15 16 17 18 19 21 21 22
46 48 48 47 41 31 31 34 35 38 38 38 40 40 39 35 32 28 27 27 26 23 17 13 14 13 9 5 3 1 3 3 4 5 7 9 10 11 13 15 16 17 18 18 20 21 22 23 25
53 53 53 52 44 34 36 38 37 38 37 35 37 45 44 38 37 33 31 30 28 26 19 13 11 14 11 4 3 2 4 5 6 8 9 12 13 15 16 18 19 21 21 21 23 25 25 26 27
58 58 57 56 52 44 42 43 40 41 39 37 38 40 46 43 40 37 35 32 28 24 22 14 12 12 12 12 12 12 10 9 9 11 14 16 17 18 20 21 22 24 24 25 26 27 27 26 26
67 66 63 60 57 52 46 47 45 44 42 42 40 35 39 50 42 40 38 37 31 26 23 17 15 13 11 15 19 17 16 15 14 16 18 19 20 21 22 23 25 25 24 25 26 25 27 27 24
67 73 70 65 64 62 52 53 47 47 44 44 42 38 43 41 44 41 40 38 31 27 26 22 21 20 20 18 19 19 20 19 19 20 21 20 22 23 24 25 26 27 25 27 26 26 25 24 21
67 72 71 72 73 72 62 59 57 55 53 50 47 44 40 39 43 42 42 43 37 35 34 30 27 24 23 22 21 19 20 20 22 23 23 23 24 26 27 27 28 29 28 26 28 26 24 21 21
67 70 67 70 76 81 75 69 67 63 59 54 53 49 48 45 43 44 45 44 43 40 35 33 31 28 27 26 27 28 27 26 27 27 26 25 26 28 30 30 30 30 29 29 28 27 27 23 21
74 70 70 72 75 80 80 76 76 71 63 64 60 58 53 49 48 46 43 42 43 39 40 35 32 30 30 28 29 30 29 27 26 26 27 28 29 32 32 33 30 32 31 30 28 27 28 23 20
75 75 77 78 76 76 75 73 79 77 73 70 67 65 59 56 54 52 50 46 42 38 37 37 35 35 35 35 31 32 31 30 30 28 30 32 33 34 32 33 33 36 31 31 36 32 25 22 22
73 78 81 82 83 80 78 72 72 77 78 78 75 71 67 64 59 56 54 52 47 42 39 38 37 39 39 37 30 34 36 34 32 31 32 35 35 35 36 34 38 36 33 35 37 23 19 20 24
68 74 79 83 82 84 82 82 70 67 75 81 79 73 71 68 64 60 58 53 49 46 42 42 43 41 40 39 35 34 36 33 32 32 34 34 34 34 31 36 41 35 32 33 24 15 16 20 24
59 68 74 76 80 83 83 83 72 67 70 74 77 75 71 71 67 66 62 59 55 52 46 46 44 43 43 41 38 38 37 36 33 33 33 34 33 30 31 37 36 34 31 34 13 16 19 21 24
44 52 58 70 74 83 86 81 78 73 75 73 73 71 74 71 70 67 63 62 59 56 53 52 49 48 48 45 43 38 35 37 36 35 32 34 31 31 31 27 30 29 34 19 17 18 20 21 23
36 40 41 50 58 70 81 86 83 79 76 75 71 69 69 72 72 65 61 61 61 59 55 54 54 52 52 46 44 39 35 36 37 37 35 33 30 32 33 29 28 26 19 19 20 20 22 21 23
37 36 39 39 46 54 77 84 85 82 81 79 73 69 67 66 67 66 62 61 61 60 59 59 56 54 54 48 43 41 36 36 36 36 36 34 33 33 34 30 30 29 27 25 23 22 22 21 24
36 36 33 37 42 50 64 85 85 87 81 80 75 70 68 64 65 66 63 61 60 57 58 60 59 56 54 49 45 43 41 34 33 35 36 36 36 34 33 32 32 33 33 30 25 23 20 25 25
32 35 29 32 36 43 50 76 86 87 84 83 78 70 68 66 66 63 61 60 58 57 57 58 57 56 54 47 43 43 42 34 33 35 37 37 35 35 33 33 33 37 33 32 29 25 21 27 26
28 32 31 35 33 35 30 57 67 83 85 80 81 72 68 68 68 65 63 58 55 53 54 56 54 52 47 41 42 39 38 37 38 38 38 37 35 35 33 34 35 39 39 37 38 34 24 26 25
22 26 29 32 33 36 34 45 63 53 84 79 81 77 72 70 67 66 63 56 52 52 54 53 51 45 43 38 39 38 40 39 38 39 38 36 37 36 35 36 36 34 38 30 15 14 21 24 26
20 23 27 30 31 32 28 33 46 41 57 79 80 77 73 72 68 66 64 60 55 54 55 53 49 44 41 36 39 40 42 40 41 39 36 37 39 36 35 36 37 30 42 31 17 17 22 23 26
22 23 24 25 24 30 23 28 32 34 44 68 78 79 74 73 70 67 66 62 58 55 53 51 50 45 41 41 40 43 43 41 41 38 34 36 34 33 33 35 41 44 32 25 17 18 21 25 29
21 24 24 31 22 22 18 27 28 33 47 65 81 78 72 73 70 69 67 64 59 57 54 52 50 45 44 41 40 43 44 44 40 39 37 35 34 34 34 37 41 43 35 25 20 18 25 29 32
18 23 24 28 28 32 27 21 20 20 31 55 75 73 70 72 71 70 69 66 63 60 57 54 52 47 46 41 40 43 44 44 41 40 39 36 34 34 33 35 40 39 51 43 15 18 27 29 32
23 25 25 24 27 28 25 20 14 11 15 42 66 72 70 69 72 71 71 69 66 62 59 57 54 50 47 45 43 42 43 43 43 42 38 36 34 34 36 37 39 41 28 25 15 23 27 30 35
25 26 25 24 24 26 27 14 7 11 14 20 53 68 66 68 69 70 71 71 68 64 60 58 56 52 50 49 43 42 42 43 44 38 34 33 34 35 34 34 34 40 44 36 24 27 26 33 33
26 26 26 26 22 26 23 14 17 9 9 20 39 60 62 69 69 68 68 71 69 67 64 60 56 53 49 44 43 44 42 44 42 36 33 32 34 35 34 33 33 41 38 29 23 26 27 30 35
Wind_Direction
227 226 224 224 224 221 217 215 219 213 217 221 214 203 201 199 200 202 206 205 195 197 195 188 188 185 177 213 287 324 3 354 359 14 28 31 41 36 42 48 44 31 5 355 351 343 336 331 327
234 231 229 228 226 222 215 214 213 216 217 222 226 218 216 209 212 208 210 209 214 219 220 218 205 204 246 297 329 339 356 358 17 19 28 39 35 24 19 11 358 350 343 337 333 329 326 324 320
241 240 236 233 229 224 214 218 210 219 217 223 234 232 228 221 220 222 226 224 233 264 282 236 233 238 272 306 318 343 358 1 37 21 7 353 353 358 348 337 332 334 331 328 327 324 321 318 316
244 243 244 239 233 222 215 221 212 220 219 221 231 236 232 231 226 226 229 236 242 275 305 254 250 262 294 304 299 348 360 355 344 333 321 328 329 332 325 321 322 324 323 322 322 320 318 314 311
247 246 245 243 237 221 223 222 218 222 227 230 233 240 242 240 237 231 233 238 245 264 273 281 271 285 301 306 286 333 313 305 309 305 306 309 309 307 306 311 315 313 313 317 320 322 320 316 312
248 248 248 248 243 229 224 224 217 221 224 228 234 237 241 239 241 240 235 240 247 258 258 269 275 280 283 280 291 267 286 291 297 290 294 298 298 300 305 307 309 311 316 321 322 323 321 322 320
247 248 247 247 246 236 232 225 218 219 223 230 234 237 241 244 243 244 248 252 254 254 259 259 276 280 274 264 279 288 291 283 281 287 292 291 295 299 301 304 306 308 315 320 320 320 321 320 315
244 246 248 247 245 241 236 233 222 223 224 231 236 235 241 244 246 248 252 255 256 258 260 262 263 266 286 280 279 276 269 273 279 281 280 286 291 294 298 299 303 306 311 316 315 316 315 314 311
243 244 246 246 246 245 236 239 234 232 235 235 237 237 237 245 247 248 251 253 255 258 261 264 265 262 272 277 271 265 264 265 267 270 275 281 286 292 294 297 301 304 310 308 312 312 314 313 310
245 244 244 242 242 242 237 237 239 235 235 237 238 238 235 239 243 246 248 251 254 258 261 262 262 263 261 267 265 266 264 266 269 271 275 279 284 289 290 295 299 303 307 306 310 311 314 308 306
247 247 247 244 242 241 237 233 234 235 233 238 239 240 237 235 240 243 245 249 251 250 252 256 256 257 261 267 265 267 267 268 268 268 270 274 280 283 286 291 295 301 299 299 303 309 312 305 306
253 249 244 244 244 242 240 234 233 232 233 235 237 238 237 237 237 240 242 245 248 250 252 254 258 258 257 263 263 265 265 268 269 268 266 268 272 275 282 285 288 288 294 305 300 308 305 300 304
251 250 248 246 244 244 243 240 235 229 230 234 236 238 237 238 238 239 242 243 242 244 248 251 254 258 258 258 261 266 266 264 264 263 262 264 268 270 278 282 284 288 292 296 303 292 295 296 298
249 249 246 246 246 244 245 239 237 232 231 230 233 234 235 236 237 239 241 242 243 242 245 249 252 255 258 261 266 264 260 263 263 260 262 263 267 271 275 277 287 284 291 294 302 287 291 297 299
253 250 248 246 246 246 244 241 236 236 237 232 231 232 233 232 232 234 238 240 240 242 241 243 247 250 255 261 262 265 260 259 259 261 265 271 274 274 279 275 283 291 298 294 293 272 291 288 291
259 255 250 247 247 246 244 239 238 235 237 235 233 232 232 232 229 228 231 235 236 237 238 239 242 247 252 256 256 260 262 263 262 267 271 274 272 273 275 279 281 287 288 297 282 270 274 281 285
261 263 259 251 248 246 245 240 237 233 234 232 230 231 233 235 232 228 228 230 234 236 235 236 239 244 248 251 254 257 260 264 265 267 271 270 267 265 270 277 282 289 286 286 268 267 274 276 284
268 274 269 262 251 250 243 241 239 234 231 231 229 228 229 232 233 231 227 229 229 232 233 232 236 241 248 247 252 260 255 267 268 270 265 261 258 266 268 277 287 283 274 274 263 265 271 283 285
275 271 273 272 271 263 240 236 237 233 230 231 227 225 226 230 231 232 227 227 227 228 229 234 237 242 245 251 257 258 260 262 257 260 257 256 257 264 269 278 280 280 271 268 253 261 269 284 286
277 269 278 277 276 269 246 234 232 233 230 230 227 222 222 226 230 230 230 227 227 226 225 229 234 239 243 250 254 258 261 261 250 250 250 254 256 262 272 277 277 277 274 262 250 260 272 281 291
263 268 274 291 276 271 258 237 231 230 226 226 224 222 220 222 227 228 226 225 224 224 223 225 232 238 244 248 251 257 259 254 249 247 248 251 259 266 272 275 282 284 269 256 242 258 262 284 293
255 263 271 279 287 284 266 254 234 228 227 223 224 218 217 220 223 225 226 222 222 221 221 226 231 234 239 245 248 250 249 242 245 245 247 252 256 262 266 276 283 285 272 263 254 242 259 287 293
261 271 278 276 286 282 278 256 233 228 223 219 222 218 213 216 220 220 225 223 219 216 220 225 228 229 234 238 241 242 241 241 246 247 250 254 257 258 264 273 280 290 288 258 226 257 275 285 291
268 275 280 284 282 286 296 255 244 232 226 213 217 214 211 212 215 216 220 221 217 213 216 219 223 225 230 233 237 236 238 241 245 246 249 252 256 259 265 270 274 273 279 247 243 257 274 289 297
273 279 293 290 282 301 305 258 257 223 226 219 211 211 211 208 211 213 215 218 217 216 215 218 219 222 225 230 233 233 236 240 244 248 251 254 259 263 268 273 277 284 286 249 243 268 293 305 310
275 282 287 290 284 285 285 275 260 246 210 220 208 207 207 207 208 209 212 214 215 217 217 218 221 222 226 227 232 232 235 240 243 247 249 254 260 262 267 275 264 279 299 259 250 278 302 301 306
274 278 290 292 296 296 312 293 299 264 232 220 213 209 201 204 205 207 210 212 214 216 217 218 222 222 224 225 230 231 235 240 242 247 250 253 262 266 268 269 278 280 294 266 255 270 290 303 308
270 277 297 298 295 290 304 299 302 264 249 220 214 214 204 199 201 204 207 209 212 215 216 217 220 222 223 225 227 229 236 241 245 248 252 257 262 267 267 273 282 293 281 313 298 290 306 313 308
289 291 294 285 287 291 297 305 280 289 238 216 211 210 212 198 198 202 206 209 209 212 215 217 220 221 222 219 228 232 235 241 245 250 256 259 263 268 271 280 288 288 288 295 286 281 297 301 302
294 290 284 279 279 278 286 303 260 256 287 191 192 210 207 203 198 200 204 207 209 210 213 214 216 221 219 224 229 232 236 241 247 250 258 263 264 267 271 277 280 277 307 306 294 291 301 303 302
Height
5891 5892 5893 5894 5897 5896 5900 5906 5906 5909 5910 5910 5913 5916 5919 5920 5920 5921 5920 5919 5919 5919 5920 5921 5921 5923 5923 5923 5924 5925 5924 5924 5924 5924 5925 5925 5924 5924 5923 5923 5923 5922 5921 5921 5920 5919 5918 5917 5916
5886 5888 5889 5889 5890 5893 5900 5903 5905 5905 5904 5906 5908 5912 5914 5916 5917 5918 5918 5918 5918 5919 5920 5921 5921 5922 5922 5923 5923 5923 5923 5923 5923 5924 5924 5923 5923 5923 5923 5923 5923 5923 5922 5921 5920 5919 5918 5916 5914
5882 5883 5884 5883 5886 5890 5901 5901 5898 5900 5900 5902 5903 5906 5909 5911 5913 5915 5916 5917 5918 5919 5920 5920 5921 5921 5921 5922 5922 5922 5921 5921 5922 5923 5923 5922 5923 5923 5924 5923 5923 5922 5921 5920 5919 5918 5917 5915 5913
5876 5876 5876 5876 5882 5893 5894 5892 5893 5894 5895 5897 5897 5900 5903 5906 5909 5911 5913 5914 5915 5916 5917 5918 5918 5918 5919 5920 5921 5920 5921 5921 5921 5921 5922 5922 5923 5923 5923 5922 5921 5921 5920 5919 5917 5916 5914 5912 5910
5868 5867 5867 5870 5877 5887 5889 5888 5889 5889 5890 5893 5893 5894 5897 5900 5904 5907 5909 5910 5912 5913 5915 5916 5916 5916 5917 5918 5919 5918 5919 5920 5920 5921 5921 5921 5921 5920 5920 5920 5920 5920 5918 5917 5915 5913 5912 5910 5908
5858 5860 5860 5863 5872 5881 5881 5880 5883 5884 5885 5887 5889 5889 5891 5896 5898 5901 5904 5907 5909 5911 5913 5914 5914 5914 5915 5916 5916 5917 5918 5919 5919 5919 5919 5919 5919 5919 5919 5918 5917 5916 5915 5913 5912 5909 5908 5905 5904
5849 5850 5852 5856 5862 5871 5872 5872 5876 5877 5879 5881 5881 5883 5885 5890 5892 5896 5899 5902 5905 5907 5909 5911 5912 5911 5912 5914 5914 5915 5916 5916 5916 5916 5916 5916 5917 5917 5916 5915 5913 5912 5912 5910 5908 5906 5904 5902 5900
5836 5836 5841 5847 5852 5858 5865 5864 5867 5869 5873 5872 5875 5882 5883 5879 5888 5891 5894 5896 5900 5903 5905 5908 5909 5909 5910 5911 5911 5912 5913 5913 5913 5913 5913 5914 5914 5913 5912 5911 5910 5909 5909 5907 5905 5903 5901 5899 5896
5820 5821 5827 5836 5840 5845 5854 5854 5860 5861 5864 5866 5868 5874 5873 5878 5880 5885 5888 5890 5894 5897 5899 5903 5905 5906 5906 5907 5908 5909 5910 5910 5910 5909 5910 5910 5909 5908 5908 5907 5907 5906 5905 5904 5902 5899 5897 5895 5893
5804 5805 5816 5821 5823 5826 5839 5843 5846 5848 5851 5856 5860 5864 5868 5871 5872 5876 5880 5883 5888 5891 5893 5896 5899 5901 5903 5904 5905 5905 5906 5907 5907 5906 5906 5906 5905 5904 5904 5903 5903 5901 5901 5900 5898 5896 5893 5891 5890
5790 5794 5801 5803 5801 5805 5815 5826 5829 5834 5841 5848 5851 5855 5858 5863 5865 5868 5873 5877 5881 5884 5887 5890 5894 5896 5898 5900 5901 5902 5903 5903 5903 5903 5902 5902 5900 5900 5899 5899 5899 5897 5896 5894 5892 5891 5890 5888 5886
5770 5778 5782 5782 5783 5785 5795 5805 5811 5819 5833 5832 5838 5841 5848 5853 5857 5860 5865 5869 5873 5878 5881 5885 5888 5891 5893 5895 5896 5898 5898 5899 5898 5898 5898 5897 5896 5896 5895 5894 5894 5892 5891 5889 5888 5887 5886 5884 5883
5751 5758 5760 5761 5766 5770 5775 5787 5794 5805 5814 5819 5823 5827 5837 5842 5846 5851 5856 5861 5866 5870 5875 5879 5883 5885 5888 5889 5891 5892 5892 5893 5893 5893 5892 5892 5891 5890 5890 5889 5888 5887 5887 5885 5884 5882 5882 5880 5878
5732 5731 5737 5742 5746 5752 5756 5767 5770 5798 5796 5800 5805 5813 5822 5828 5835 5840 5845 5851 5858 5865 5869 5872 5876 5878 5880 5882 5885 5885 5886 5888 5888 5887 5887 5886 5886 5886 5885 5884 5882 5882 5882 5881 5879 5878 5877 5877 5875
5713 5714 5715 5722 5728 5733 5737 5739 5762 5784 5777 5783 5788 5797 5805 5813 5822 5828 5834 5842 5848 5854 5860 5864 5867 5870 5873 5876 5878 5878 5879 5881 5882 5882 5881 5882 5882 5881 5880 5878 5876 5877 5877 5876 5872 5874 5874 5872 5871
5696 5694 5699 5708 5709 5709 5711 5731 5756 5756 5757 5766 5775 5783 5791 5798 5810 5816 5824 5829 5836 5842 5849 5854 5859 5862 5865 5868 5870 5872 5872 5873 5875 5877 5877 5877 5876 5875 5874 5872 5871 5872 5871 5870 5869 5870 5868 5868 5867
5682 5680 5682 5687 5687 5687 5693 5719 5730 5732 5735 5748 5759 5771 5779 5786 5794 5805 5814 5821 5826 5831 5839 5844 5849 5853 5856 5860 5863 5866 5868 5869 5870 5872 5872 5871 5871 5869 5867 5866 5868 5868 5867 5865 5866 5865 5865 5864 5862
5670 5668 5670 5668 5671 5668 5680 5693 5700 5711 5721 5731 5743 5756 5765 5771 5782 5795 5804 5810 5816 5822 5829 5834 5838 5844 5847 5852 5856 5860 5863 5864 5865 5866 5865 5865 5864 5862 5862 5864 5865 5865 5862 5862 5861 5860 5860 5858 5857
5656 5657 5656 5659 5653 5647 5658 5669 5673 5687 5700 5713 5730 5742 5752 5760 5772 5780 5790 5797 5805 5812 5819 5824 5829 5836 5839 5846 5850 5851 5855 5857 5858 5860 5859 5859 5858 5857 5856 5859 5859 5858 5858 5857 5856 5855 5854 5853 5852
5644 5644 5648 5643 5642 5635 5639 5643 5654 5664 5687 5697 5713 5727 5741 5749 5756 5764 5778 5786 5795 5805 5812 5816 5822 5828 5833 5839 5843 5844 5846 5850 5852 5853 5854 5853 5852 5852 5853 5853 5852 5852 5851 5851 5851 5850 5848 5849 5847
5633 5634 5636 5632 5630 5622 5620 5621 5631 5644 5665 5678 5694 5716 5728 5738 5743 5751 5763 5773 5784 5793 5802 5809 5816 5822 5827 5832 5836 5838 5841 5843 5846 5847 5848 5848 5847 5847 5848 5847 5846 5845 5844 5842 5842 5844 5844 5845 5842
5625 5624 5625 5623 5617 5611 5614 5603 5615 5630 5646 5664 5679 5697 5716 5723 5729 5739 5749 5761 5773 5784 5795 5801 5808 5815 5820 5826 5829 5831 5834 5836 5839 5840 5840 5842 5842 5841 5842 5841 5839 5837 5834 5833 5834 5836 5839 5838 5836
5619 5618 5615 5612 5607 5602 5600 5595 5601 5613 5626 5650 5666 5683 5696 5707 5717 5729 5739 5753 5764 5774 5784 5792 5798 5806 5813 5819 5821 5824 5827 5830 5832 5833 5835 5836 5835 5836 5835 5833 5832 5831 5831 5823 5827 5831 5833 5830 5829
5611 5610 5607 5603 5597 5591 5588 5587 5587 5603 5612 5632 5644 5661 5677 5691 5703 5717 5729 5740 5751 5762 5771 5780 5790 5799 5806 5812 5815 5819 5820 5823 5826 5827 5829 5828 5828 5830 5829 5829 5828 5827 5824 5822 5822 5825 5825 5824 5823
5604 5602 5599 5596 5591 5584 5584 5578 5580 5591 5602 5613 5628 5646 5664 5677 5690 5704 5717 5729 5741 5752 5763 5773 5782 5791 5798 5804 5808 5811 5813 5817 5819 5822 5823 5822 5823 5824 5824 5824 5823 5821 5817 5816 5817 5818 5818 5817 5815
5599 5597 5595 5588 5588 5584 5582 5574 5576 5579 5584 5593 5608 5629 5649 5666 5680 5692 5705 5718 5731 5743 5754 5764 5773 5783 5790 5796 5800 5804 5807 5810 5813 5815 5817 5817 5818 5819 5821 5819 5815 5812 5814 5807 5810 5811 5811 5811 5810
5596 5591 5590 5583 5580 5575 5574 5571 5569 5570 5572 5583 5598 5613 5633 5652 5668 5682 5694 5708 5720 5732 5744 5755 5765 5775 5782 5788 5793 5797 5801 5805 5807 5808 5810 5812 5814 5815 5816 5814 5809 5809 5807 5800 5802 5806 5806 5804 5802
5587 5587 5585 5580 5575 5570 5568 5567 5568 5566 5569 5571 5584 5603 5622 5639 5656 5671 5684 5696 5710 5722 5734 5745 5755 5765 5773 5780 5785 5791 5795 5798 5799 5801 5805 5807 5808 5808 5808 5807 5807 5805 5801 5799 5798 5801 5799 5797 5797
5582 5580 5578 5575 5572 5567 5566 5568 5561 5562 5564 5566 5579 5597 5612 5630 5647 5661 5675 5686 5700 5712 5723 5735 5746 5756 5764 5772 5779 5784 5789 5791 5792 5797 5800 5800 5801 5802 5802 5802 5802 5800 5798 5796 5796 5795 5795 5794 5792
5576 5574 5572 5568 5569 5565 5563 5563 5561 5561 5560 5564 5568 5584 5603 5620 5634 5648 5662 5675 5688 5701 5713 5725 5738 5748 5758 5767 5772 5776 5781 5783 5786 5792 5793 5794 5795 5795 5796 5797 5798 5795 5791 5792 5792 5792 5789 5788 5786